Temp_Advection
nan nan nan nan nan nan nan nan nan nan nan nan nan nan nan nan nan nan nan nan nan nan nan nan nan nan nan nan nan nan nan nan nan nan nan nan nan nan nan nan nan nan nan nan nan nan nan nan nan nan nan nan nan nan nan nan nan nan nan nan nan nan nan nan nan nan nan nan nan
nan -0 -0 -0 0 0 0 1 1 1 1 0 0 0 0 0 -0 -0 0 0 0 1 1 0 0 0 0 0 -0 0 0 1 1 1 1 0 -0 -1 -1 -0 0 1 1 -0 -1 -1 -1 -1 -1 -0 2 4 3 1 -1 -1 -1 -1 -0 1 1 1 0 -0 -0 -0 -0 0 nan
nan -0 -0 -0 -0 -0 0 0 1 1 1 0 0 0 -0 -0 -0 0 0 0 0 0 0 0 0 1 1 0 0 0 0 0 0 1 1 1 0 0 1 1 0 0 -1 -1 -1 -1 -1 -1 -1 -1 0 3 3 2 -0 -1 -1 0 1 1 1 0 -0 -0 -0 -0 -0 -0 nan
nan -0 -0 -0 -0 -0 0 0 0 0 0 -0 -0 -0 0 0 -0 -0 0 0 0 0 0 0 0 0 0 0 0 0 0 0 0 1 1 0 0 0 0 1 1 1 0 -0 -0 -0 -0 -1 -1 -1 -0 1 3 2 0 -1 -0 0 1 1 0 -0 -1 -0 -0 -0 -0 -0 nan
nan 0 0 0 0 0 0 0 0 0 0 -0 -0 0 0 0 -0 -0 -0 0 0 0 0 0 0 1 0 0 0 0 0 1 1 1 1 1 -1 -1 -0 1 1 0 0 0 0 0 0 0 -0 -0 -0 0 1 2 1 0 0 1 2 1 -0 -1 -0 -0 -0 -0 -0 -0 nan
nan 0 -0 -0 0 0 -0 -0 -0 -0 -0 -0 0 0 0 0 0 -0 -0 -0 0 0 0 0 0 0 0 0 0 0 1 1 1 1 1 1 0 -1 -0 1 0 -1 -1 -1 -1 -0 0 1 1 0 -0 0 1 1 1 1 1 1 1 0 0 0 0 -0 -1 -1 -0 -0 nan
nan -0 -0 -0 0 0 0 0 -0 -0 -0 -0 -0 -0 0 0 0 0 0 0 0 0 0 0 0 0 0 -0 -0 0 1 1 1 1 1 1 0 1 1 0 -1 -1 -1 -1 -1 -1 -1 -0 1 0 -0 -0 0 0 0 1 1 1 0 0 0 1 1 1 -0 -0 -0 -0 nan
nan -0 -0 -0 -0 -0 0 0 0 0 0 -0 -0 -0 -0 -0 -0 -0 0 0 0 0 0 0 0 0 0 -0 -0 -0 0 1 1 1 1 1 1 1 0 -0 -0 -0 -0 -0 -1 -1 -1 -1 -0 0 0 0 -0 0 -0 0 0 0 0 0 1 2 2 1 0 -0 -0 -0 nan
nan -0 -0 -0 -0 -0 -0 -0 -0 0 0 0 0 0 0 -0 -0 -0 -0 -0 -0 0 0 0 0 0 0 1 0 0 0 0 1 1 1 1 1 -0 -0 0 0 -0 -0 -0 -0 -1 -1 -1 -1 -0 0 1 1 1 -0 -1 -0 -0 0 1 2 2 2 0 -0 0 1 1 nan
nan -0 -0 -0 -0 -0 -0 -0 -0 -0 -0 0 0 0 0 0 -0 -0 -0 -0 -0 -0 0 0 0 0 0 0 1 1 1 1 1 1 1 0 -0 -0 -0 0 0 0 0 -0 -0 -0 -1 -1 -1 -0 0 1 1 1 -0 -0 -0 0 1 2 2 1 0 -0 -0 0 1 1 nan
nan -0 -0 -0 -0 -0 -0 -0 -0 -0 -0 -0 -0 0 -0 -0 -0 -0 -0 -0 -0 -0 -0 -0 -0 -0 -0 0 0 1 1 1 2 2 1 0 -1 -1 -0 0 0 0 0 0 0 -0 -0 -0 -0 -0 0 0 -0 -0 0 1 2 1 1 1 1 1 -0 -0 0 0 0 -0 nan
nan -0 -0 -1 -1 -1 -0 -0 -0 -0 -1 -1 -0 -0 -0 -1 -1 -1 -0 -0 -0 -0 -0 -0 -0 -0 -0 -0 -0 -0 0 1 1 2 2 1 1 -0 -0 -0 -0 -0 -0 -0 -0 -0 -0 -0 0 -0 -0 -0 0 0 1 2 2 2 1 0 0 0 0 0 0 1 0 -0 nan
nan -0 -1 -1 -1 -1 -1 -0 -0 -0 -1 -1 -1 -0 -1 -1 -1 -1 -0 -0 -0 -0 -0 -0 -0 -0 0 0 0 -0 -0 -0 -0 1 2 2 2 2 1 0 -0 -0 -0 -0 -1 -0 -0 -0 0 0 0 0 0 1 2 2 1 1 1 0 0 1 1 1 1 1 0 -0 nan
nan -1 -1 -1 -1 -1 -1 -0 -0 -0 -1 -1 -0 -0 -1 -2 -2 -1 -1 -0 -0 -0 -0 -0 -0 0 0 1 1 0 -0 -1 -2 -2 -0 1 2 3 2 2 1 1 0 -0 -1 -1 -1 -1 -0 0 0 0 1 2 2 2 1 0 -0 -0 0 1 1 1 1 1 0 0 nan
nan -1 -1 -1 -0 -1 -1 -0 -0 -0 -1 -0 -0 -1 -1 -1 -1 -1 -1 -1 -0 -0 -0 -0 -0 0 0 1 1 0 -0 -1 -1 -1 -1 -0 1 1 1 1 1 1 1 1 -0 -1 -1 -1 -1 -0 1 1 2 3 2 1 0 -0 -0 0 0 0 0 -0 0 0 1 1 nan
nan -0 -1 -0 -0 -0 -0 -0 -0 -0 -0 -1 -1 -1 -1 -1 -0 -0 -0 -0 -0 -0 -0 -0 -0 0 0 1 0 0 0 0 0 -0 -1 -1 -1 -0 0 1 1 2 2 2 1 -0 -1 -2 -1 -1 1 2 2 2 1 0 0 0 0 0 0 0 -0 -0 -0 0 0 0 nan
nan -0 -0 -0 -0 -0 -0 -0 0 -0 -0 -1 -2 -2 -1 -1 -0 -0 -0 -0 -0 -0 -0 -0 0 0 1 0 0 -0 -0 -0 0 0 -0 -1 -1 -1 -1 -0 1 2 3 2 1 0 -0 -1 -2 -1 1 2 2 1 0 -0 0 0 0 0 -0 0 -0 -0 -0 -0 -0 -0 nan
nan -0 -0 -0 -0 -0 -0 -0 -0 -0 -0 -1 -2 -1 -1 -0 -0 -0 -0 -0 -0 -0 -0 0 0 1 1 1 0 -0 -0 -1 -1 -0 -0 -1 -1 -1 -1 -1 0 1 2 2 2 1 0 -1 -1 0 1 1 1 0 -0 0 0 0 0 0 -0 0 0 0 -0 -0 0 0 nan
nan 0 0 -0 -0 -0 -0 -1 -0 -0 -0 -1 -1 -1 -1 -1 -1 -0 -0 -0 -0 0 0 0 0 1 1 0 0 -0 -0 -1 -1 -1 -1 -1 -1 -1 -1 -0 0 0 1 1 1 1 1 0 1 1 1 0 0 0 0 0 0 0 0 0 0 0 0 0 0 0 0 0 nan
nan 0 0 -0 -0 -0 -1 -1 -1 -1 -0 -0 -0 -0 -1 -0 -0 -0 -0 -0 -0 0 0 0 0 0 0 0 -0 -0 -1 -1 -0 -0 -0 -0 -1 -1 -1 -0 -0 0 0 0 1 1 1 2 2 1 0 0 0 -0 -0 0 0 0 0 0 0 0 1 1 1 0 0 0 nan
nan 0 0 0 -0 -0 -1 -1 -1 -1 -0 -0 -0 -0 -0 -0 -0 -0 -0 -0 0 0 0 0 0 0 -0 -0 -0 -0 -0 -1 -1 -1 -1 -0 -0 -1 -1 -0 -0 -0 -0 -0 0 1 2 2 1 1 0 0 -0 -0 0 0 0 0 0 0 1 1 1 1 0 0 0 0 nan
nan 0 0 -0 -0 -0 -0 -0 -0 -0 -0 -0 -0 -0 -0 -0 0 0 0 0 -0 -0 -0 0 0 0 -0 -0 -0 -0 -0 -0 -1 -1 -1 -0 -0 -0 -0 -0 -1 -1 -1 -0 0 1 1 1 1 0 0 0 0 0 0 0 0 0 0 1 1 1 1 0 0 0 0 0 nan
nan 0 0 -0 -0 -0 -0 -0 -0 -0 -0 -0 -0 -0 -0 0 0 0 0 -0 -0 -0 -0 -0 -0 -0 -0 -0 -0 -0 -0 -0 -0 -0 -0 -0 -0 -0 -0 -0 -1 -1 -1 -0 0 0 0 0 0 0 0 0 0 0 0 0 0 0 0 0 0 0 0 0 0 0 0 0 nan
nan 0 0 -0 -0 -0 -0 -0 -0 -0 -0 -0 -0 0 0 0 -0 -0 -0 -0 -0 -0 -0 -0 -0 -0 -0 -1 -1 -0 -0 -0 -0 -0 -0 -0 -0 -0 -0 -0 -0 -0 -0 0 0 0 0 0 0 0 0 0 0 0 0 0 0 0 0 0 0 0 0 0 0 0 0 0 nan
nan 0 -0 -0 -0 -0 -0 -0 -0 -0 -0 -0 -0 -0 -0 -0 -0 -0 -0 -0 -0 -0 -0 -0 -0 -0 -0 -0 -0 -0 -0 -0 -0 -0 -0 -0 -0 -0 -0 -0 -0 0 0 0 0 0 0 0 0 0 0 0 0 0 0 0 0 0 0 0 0 0 0 0 0 0 0 0 nan
nan -0 -0 -0 -0 -0 0 0 0 0 -0 -0 -0 -0 -0 -0 -0 -0 -0 -0 -0 -0 -0 -0 -0 -0 -0 -0 -0 -0 -0 -0 -0 -0 -0 -0 -0 -0 -0 -0 0 0 0 0 0 0 0 0 0 0 0 0 0 0 0 0 0 0 0 0 0 0 0 0 0 0 0 0 nan
nan -0 0 0 0 0 0 0 0 -0 -0 -0 -0 -0 -0 -0 -0 -0 -0 -0 -0 -0 -0 -0 -0 -0 -0 -0 -0 -0 -0 -0 -0 -0 -0 -0 -0 -0 -0 0 0 0 0 0 0 0 0 0 0 0 0 0 0 0 0 -0 -0 -0 0 0 0 0 0 0 0 0 0 -0 nan
nan 0 0 0 0 -0 -0 0 -0 -0 -0 -0 -0 -0 -0 -0 -0 -0 -0 -0 -0 -0 -0 -0 -0 -0 -0 -0 -0 -0 -0 -0 -0 -0 -0 0 0 0 0 0 0 0 -0 -0 -0 -0 -0 -0 -0 -0 -0 -0 0 0 0 -0 -0 -0 0 0 0 0 0 0 0 0 -0 -0 nan
nan 0 0 -0 -0 -0 -0 -0 -0 -0 -0 -0 -0 -0 -0 -0 -0 -0 -0 -0 -0 -0 -0 -0 -0 -0 -0 -0 -0 -0 -0 -0 -0 0 0 0 0 0 0 0 0 0 0 0 -0 -0 -0 -0 -0 -0 -0 -0 -0 -0 -0 0 0 0 0 0 0 0 0 0 0 -0 -0 -0 nan
nan -0 -0 -0 -0 -0 -0 -0 -0 -0 0 -0 -0 -0 -0 -0 -0 -0 -0 -0 -0 -0 -0 -0 -0 -0 -0 -0 -0 -0 -0 -0 0 0 0 0 0 1 1 1 0 0 0 0 -0 -0 -0 -0 -0 -0 -0 -0 -0 -0 0 0 0 0 0 0 0 0 0 -0 -0 -0 -0 -0 nan
nan -0 -0 -0 -0 -0 -0 -0 0 0 -0 -0 -0 -0 -0 -0 -0 -0 -0 -0 -0 -0 -0 -0 -0 -0 -0 -0 -0 -0 -0 -0 -0 0 0 0 0 0 1 1 0 0 0 -0 -0 -0 -0 -0 -0 -0 -0 -0 -0 0 0 0 0 0 0 0 0 -0 -0 -0 -0 -0 0 0 nan
nan -0 -0 -0 -0 -0 -0 0 0 -0 -0 -0 -0 -0 -0 -0 0 0 -0 -0 -0 -0 0 -0 -0 -0 -0 0 0 0 -0 -0 -0 -0 -0 -0 -0 -0 -0 0 0 -0 -0 -0 -0 -0 -0 -0 -0 -0 -0 -0 0 0 0 0 0 0 0 0 -0 -0 -0 0 0 0 0 0 nan
nan -0 0 0 -0 -0 -0 0 0 -0 -0 -0 -0 -0 -0 0 0 -0 -0 -0 0 0 0 0 -0 -0 -0 0 0 0 -0 -0 -0 -0 -0 -0 -0 -0 -0 -0 -0 -0 -0 0 0 -0 -0 -0 -0 -0 -0 -0 0 -0 -0 -0 -0 -0 -0 -0 -0 0 0 0 0 0 0 -0 nan
nan 0 0 -0 -0 -0 -0 0 0 -0 -0 0 0 0 -0 -0 -0 -0 -0 -0 0 0 0 0 -0 -0 -0 0 0 -0 -0 -0 -0 -0 -0 -0 -0 -0 -0 -0 -0 0 0 0 0 -0 -0 -0 -0 -0 -0 -0 -0 -0 -0 -0 -0 -0 0 0 0 0 0 -0 -0 -0 -0 0 nan
nan 0 0 -0 -0 -0 -0 0 0 0 0 0 0 0 -0 -0 -0 -0 -0 0 0 0 0 -0 -0 -0 -0 -0 0 -0 -0 -0 -0 -0 -0 -0 0 0 0 0 -0 -0 -0 -0 -0 -0 -0 -0 -0 -0 0 0 -0 -0 -0 -0 -0 0 0 -0 -0 -0 -0 -0 -0 0 0 0 nan
nan 0 0 -0 -0 -0 0 0 0 0 0 0 0 -0 -0 -0 -0 -0 -0 0 0 0 0 -0 -0 -0 -0 -0 -0 -0 -0 -0 -0 -0 -0 0 0 0 0 -0 -0 -0 -0 -0 -0 -0 -0 -0 -0 -0 0 -0 -0 -0 -0 -0 -0 -0 -0 -0 0 0 0 -0 -0 -0 -0 0 nan
nan -0 0 0 0 0 0 0 0 0 0 0 0 -0 -0 -0 -0 -0 0 0 0 0 0 -0 -0 0 -0 -0 -0 -0 -0 -0 -0 -0 -0 0 0 0 0 -0 -0 -0 -0 -0 -0 -0 -0 -0 -0 0 -0 -0 -0 -0 -0 -0 -0 -0 -0 0 0 0 -0 -0 -0 -0 -0 -0 nan
nan -0 -0 0 0 0 0 0 0 0 0 -0 -0 -0 -0 -0 -0 -0 0 0 0 0 -0 -0 -0 -0 -0 -0 -0 -0 -0 -0 0 0 0 0 0 0 0 0 -0 -0 -0 -0 -0 -0 0 0 0 -0 -0 -0 -0 -0 0 0 0 -0 -0 -0 -0 -0 -0 -0 -0 -0 -0 -0 nan
nan -0 -0 0 0 0 0 0 0 0 0 -0 -0 -0 -0 -0 -0 -0 0 0 0 -0 -0 -0 -0 -0 -0 -0 -0 -0 -0 -0 0 0 0 0 0 0 0 0 0 0 0 0 0 0 0 0 0 0 0 0 -0 -0 -0 -0 -0 -0 -0 -0 -0 -0 -0 -0 -0 -0 -0 -0 nan
nan -0 -0 0 0 0 0 0 0 0 0 0 -0 -0 -0 -0 -0 -0 0 0 0 0 -0 -0 -1 -0 -0 -0 -0 -0 -0 -0 0 0 0 0 0 0 0 0 0 0 0 0 0 0 -0 -0 -0 -0 -0 -0 -0 -0 -0 -0 -0 -0 -0 -0 -0 -0 -0 -0 -0 -0 -0 -0 nan
nan nan nan nan nan nan nan nan nan nan nan nan nan nan nan nan nan nan nan nan nan nan nan nan nan nan nan nan nan nan nan nan nan nan nan nan nan nan nan nan nan nan nan nan nan nan nan nan nan nan nan nan nan nan nan nan nan nan nan nan nan nan nan nan nan nan nan nan nan
Wind_Speed
17 19 20 22 23 24 24 22 20 18 16 15 15 15 16 15 16 17 18 19 19 19 19 20 20 21 21 21 21 20 21 21 22 24 26 28 29 30 31 32 32 31 30 30 32 33 34 35 37 38 37 35 35 36 37 37 35 34 32 31 32 33 33 33 33 32 33 35 36
10 12 14 16 18 19 21 22 22 21 18 17 16 15 15 15 16 18 19 20 20 19 18 18 18 19 18 18 18 18 18 18 20 22 24 26 27 28 29 29 30 29 28 30 31 32 32 32 34 35 36 36 36 37 37 35 33 30 29 28 31 32 32 32 30 30 31 32 33
3 5 6 7 9 11 12 14 16 17 16 15 15 15 15 16 17 19 20 21 20 20 19 19 18 18 17 17 17 17 16 17 18 20 22 24 24 25 26 27 27 26 26 26 27 27 28 29 30 31 33 35 35 35 35 33 31 29 28 29 31 32 31 31 30 30 31 31 31
0 0 1 2 2 4 5 7 8 9 10 10 12 13 14 14 16 18 20 20 19 19 19 18 18 17 16 16 16 16 16 17 18 19 21 23 24 25 25 24 23 22 21 21 22 23 24 25 26 27 30 32 33 34 33 31 30 29 29 31 32 33 33 33 33 32 31 31 31
2 2 2 1 1 1 2 3 5 6 7 9 11 12 12 12 14 16 18 18 18 17 17 17 16 16 15 16 17 18 19 20 21 21 21 22 24 26 25 23 21 20 20 20 22 22 23 23 23 24 26 29 31 32 32 31 29 29 30 33 34 34 34 35 37 36 34 32 32
1 1 2 2 2 1 0 1 2 3 5 7 9 9 10 11 10 12 13 14 15 15 15 15 16 17 17 18 19 21 22 23 23 23 23 24 25 25 24 23 21 20 21 22 23 25 25 25 25 24 25 27 30 32 32 31 30 30 31 33 34 35 35 36 37 36 35 34 33
3 2 2 2 1 1 2 2 3 4 4 4 5 6 7 8 9 10 11 12 13 14 14 15 16 18 19 20 21 23 23 24 25 25 25 26 25 24 22 21 21 21 21 21 23 24 26 28 29 29 28 28 30 32 33 33 32 30 31 32 34 36 37 37 36 35 34 34 33
6 6 5 5 5 5 6 6 6 6 6 6 6 6 6 7 8 9 10 12 13 14 15 16 18 18 19 20 22 24 25 26 26 27 26 25 22 20 20 21 21 20 19 19 20 22 24 26 29 31 31 31 31 32 32 32 31 30 31 32 35 36 37 37 35 35 34 33 32
8 8 8 9 9 9 10 10 10 10 9 9 9 9 9 10 11 11 11 12 12 13 14 15 17 18 20 21 23 25 27 28 28 27 25 22 19 19 19 20 19 18 18 17 18 19 21 23 25 28 31 32 31 31 30 30 30 30 31 33 35 36 35 35 34 35 34 33 31
11 11 11 12 12 13 13 13 13 13 13 13 13 13 14 14 14 14 14 14 14 14 14 15 16 17 18 20 22 25 26 27 27 24 20 18 18 19 19 19 18 18 17 17 17 17 19 20 23 26 29 31 31 30 30 30 31 32 33 34 34 34 33 33 33 34 33 31 29
13 14 14 14 15 15 15 16 16 16 16 17 17 17 17 17 17 17 17 17 17 18 18 18 18 18 18 19 21 23 24 25 23 19 16 15 16 18 19 19 19 18 18 17 17 17 18 19 22 26 28 29 30 31 32 33 33 33 34 34 33 32 31 31 31 31 30 28 27
14 15 15 16 16 17 17 17 18 18 18 18 19 18 19 19 20 20 20 20 20 20 20 20 20 20 19 20 21 22 23 22 21 18 16 15 15 16 17 17 18 19 20 19 18 17 18 19 21 23 24 26 29 33 35 35 34 33 33 32 32 32 31 31 30 29 28 27 27
15 16 16 16 17 17 18 18 18 17 17 18 18 19 19 21 22 23 23 22 22 22 22 21 21 21 20 20 20 21 21 21 20 20 20 19 18 18 18 18 19 20 21 21 20 19 19 19 21 22 24 26 30 33 35 34 33 32 31 31 31 32 32 31 29 28 27 26 25
16 16 16 17 17 17 18 17 17 16 16 17 17 18 20 22 24 24 24 24 24 23 22 22 21 21 21 21 20 19 19 19 21 23 25 26 25 25 24 22 20 19 20 21 21 20 19 18 19 21 24 27 31 33 34 33 31 29 29 30 31 31 30 29 27 26 25 24 23
16 16 16 16 16 17 16 16 15 15 15 16 17 19 21 23 24 24 24 24 23 23 22 21 21 21 21 21 20 19 18 18 20 22 25 27 28 28 28 26 22 20 20 21 22 22 21 19 19 22 25 29 32 33 32 31 30 29 29 29 29 28 27 25 24 24 23 23 22
15 16 16 16 15 15 15 14 13 13 15 16 19 21 23 24 24 23 22 22 22 21 21 21 21 20 20 20 20 20 19 19 19 19 21 23 25 26 27 27 25 23 22 23 24 25 24 23 23 25 29 32 32 31 30 29 29 29 29 28 26 24 23 22 22 22 22 22 22
15 15 15 15 14 14 13 13 13 14 15 18 21 23 24 23 23 22 21 21 20 20 20 20 20 19 19 19 20 21 21 21 21 20 20 21 22 24 25 27 28 29 29 29 27 26 26 26 28 30 32 32 29 27 26 25 26 26 25 23 21 20 20 20 20 20 20 20 19
15 15 14 14 14 14 14 14 15 16 18 20 22 23 23 23 23 22 21 20 20 19 19 19 18 18 17 17 19 20 21 22 22 22 23 23 23 23 25 27 29 31 32 32 29 26 25 27 31 33 32 29 25 23 21 21 22 21 19 17 17 17 17 17 17 17 17 16 16
15 14 14 14 14 15 16 17 18 19 20 21 22 22 22 22 22 21 20 19 18 17 16 16 15 15 15 15 16 18 19 20 21 22 23 23 23 23 23 24 25 26 27 28 28 26 27 29 32 32 29 25 22 20 18 17 17 16 15 14 14 15 15 15 14 14 13 13 12
15 14 14 15 15 16 16 17 18 19 20 20 20 20 20 19 18 17 16 15 15 14 13 12 12 12 12 12 13 14 16 17 18 19 20 21 21 21 21 21 22 23 24 25 26 27 29 31 31 28 24 21 18 16 15 15 14 13 12 12 12 12 12 12 11 11 10 10 9
14 14 14 15 15 15 16 17 17 18 18 18 17 17 16 14 13 12 11 10 10 10 10 10 10 10 10 11 12 13 14 15 16 17 17 18 18 19 20 20 21 21 22 23 25 27 28 28 25 21 18 15 14 13 13 12 11 10 10 10 10 10 10 9 9 8 8 8 8
13 13 13 13 13 14 14 14 14 14 14 13 13 12 10 9 8 7 7 7 7 8 8 8 9 10 11 11 12 13 14 15 15 15 16 16 16 17 17 17 18 19 19 20 21 22 21 20 17 14 12 11 10 10 10 9 9 8 8 8 8 8 7 7 7 7 7 7 7
11 11 11 11 11 11 11 11 10 10 10 9 8 7 6 5 5 4 4 5 5 6 6 7 9 10 11 12 13 14 14 14 14 13 13 13 13 14 14 14 14 15 15 16 16 15 13 12 10 9 9 8 8 7 7 7 7 7 6 6 5 5 5 6 6 6 7 7 8
8 8 8 8 8 8 8 7 6 6 6 6 5 4 3 3 3 3 3 4 4 5 6 7 9 10 11 12 12 13 12 12 11 11 11 10 10 10 10 10 11 11 11 11 10 9 8 7 6 6 6 6 6 5 5 5 5 5 4 4 4 4 4 4 5 6 6 7 8
6 6 6 5 5 5 5 4 4 3 3 3 2 2 1 1 2 3 3 4 4 5 5 6 8 9 10 10 10 10 10 10 9 8 8 7 7 7 7 7 7 7 7 6 5 5 4 4 3 3 3 3 3 4 4 4 4 4 3 3 3 4 4 5 5 6 7 8 8
4 3 3 3 3 3 2 2 2 1 1 1 1 2 2 3 3 4 4 4 4 4 5 5 6 7 8 8 8 8 7 7 6 5 5 4 4 3 3 3 3 3 3 2 2 2 2 2 2 2 2 2 3 3 4 4 4 4 4 4 4 4 5 6 6 7 8 8 8
2 1 1 1 1 1 1 1 1 1 2 3 4 4 5 6 6 6 5 5 5 5 5 5 5 6 6 6 6 6 5 4 4 3 2 2 2 1 1 1 1 1 1 1 2 2 2 3 3 3 3 3 3 4 4 4 4 4 4 4 4 5 5 6 7 8 8 9 9
1 0 1 2 2 2 2 2 3 4 4 5 6 6 7 7 7 6 6 6 6 6 5 5 5 5 5 5 5 4 3 3 2 2 1 1 1 1 1 2 2 2 3 3 3 3 3 4 5 5 5 4 4 4 3 3 3 3 3 4 4 5 6 7 7 8 8 9 9
1 2 3 4 4 4 4 4 4 5 6 7 7 7 7 7 7 6 7 7 6 6 6 6 5 5 5 5 4 4 3 3 3 3 3 3 4 4 4 4 5 5 4 4 4 4 4 5 6 5 5 5 4 3 2 2 2 2 3 4 4 5 6 7 7 8 8 8 7
4 5 6 6 7 6 6 6 6 7 7 7 7 6 6 6 6 6 7 6 6 6 6 6 5 5 6 5 5 5 5 6 6 6 6 7 7 8 8 7 7 6 5 5 5 5 5 6 6 5 5 4 3 2 1 1 2 3 3 4 5 6 6 7 7 7 7 7 7
6 7 8 8 8 8 8 7 7 7 7 7 6 6 6 6 6 7 7 6 6 6 6 5 5 6 6 6 6 6 6 7 8 8 9 9 9 10 10 9 9 8 7 6 6 6 6 5 5 4 4 3 2 1 1 2 3 4 4 5 6 6 6 6 6 6 6 7 7
9 9 9 9 9 8 8 8 8 8 7 7 7 6 6 7 7 7 7 7 7 7 7 6 6 7 7 6 6 5 5 5 6 6 6 6 7 8 9 9 9 8 7 6 6 6 6 5 4 4 3 2 1 1 2 2 3 4 4 5 5 5 6 6 6 7 7 8 8
10 9 9 9 9 8 8 8 8 8 7 7 7 7 7 7 7 7 7 7 8 8 8 7 7 7 7 6 5 5 5 5 6 6 7 7 7 7 8 8 8 8 7 7 7 6 6 5 4 3 3 2 1 1 2 2 3 3 4 5 5 6 6 7 7 8 9 9 9
10 10 9 9 9 9 9 9 9 8 8 7 7 7 7 7 7 8 8 8 8 8 7 7 7 7 6 6 6 7 7 8 9 9 9 9 9 8 8 8 8 8 8 7 7 7 6 5 4 3 2 1 1 1 2 2 3 4 4 5 6 7 8 8 9 9 9 9 9
10 10 9 9 9 9 9 9 9 8 8 8 8 8 8 8 9 9 9 9 9 8 8 8 8 8 9 9 9 10 10 10 10 10 9 9 8 8 8 9 8 8 8 7 7 6 5 4 3 2 1 1 0 1 2 3 4 5 6 7 8 8 9 9 9 9 8 8 7
10 10 10 9 9 9 9 9 9 8 8 8 9 9 9 10 10 10 10 10 10 10 10 11 11 11 11 12 12 12 11 11 10 9 9 8 8 7 8 8 8 7 7 6 6 5 4 3 2 1 0 1 2 2 3 4 5 6 7 7 8 8 8 7 7 7 6 6 5
10 10 10 10 10 10 9 9 9 9 9 9 10 10 11 11 12 12 12 12 12 12 12 13 13 13 13 13 12 12 11 10 9 8 8 7 7 6 6 7 7 6 6 5 4 4 3 2 1 0 1 2 3 4 4 5 5 6 6 6 6 6 5 5 5 4 4 5 5
10 10 10 10 10 10 9 9 9 10 10 11 11 12 12 13 14 14 14 14 14 14 14 14 14 14 13 13 12 11 10 9 8 7 7 7 6 6 5 5 5 5 5 4 3 2 2 1 0 0 1 2 2 3 3 3 3 3 3 3 4 4 4 4 4 4 4 5 5
11 11 11 11 11 11 11 11 11 12 12 13 14 14 15 15 16 16 16 15 15 15 15 15 15 14 13 13 12 11 10 9 8 7 6 6 6 5 5 4 4 4 4 4 3 3 2 2 1 1 1 2 2 2 3 3 3 3 3 3 3 4 4 4 5 5 5 5 5
13 13 13 13 13 13 13 13 14 14 15 16 16 17 17 17 17 17 17 17 16 16 16 15 15 14 13 12 11 10 9 8 7 6 6 6 5 5 5 4 4 5 5 5 5 5 4 4 4 4 4 4 4 5 5 5 5 5 5 5 4 4 5 5 5 5 5 5 5
16 16 15 15 15 15 16 16 17 17 18 18 18 18 19 19 18 18 17 17 16 16 15 15 14 13 12 11 9 8 8 7 7 6 6 6 6 6 6 6 6 6 6 6 6 6 6 6 6 6 6 6 6 6 6 6 6 5 5 5 4 4 4 5 5 5 5 6 6
Wind_Direction
262 260 258 256 253 250 247 245 242 241 242 246 249 252 254 256 256 256 257 258 259 262 266 270 274 277 278 278 279 278 274 269 262 257 255 256 258 260 262 264 265 263 260 260 266 274 280 283 283 282 277 268 263 263 266 267 268 269 271 271 271 273 276 276 273 270 270 269 269
274 270 266 264 261 259 256 253 250 247 246 247 249 251 253 255 254 254 255 256 258 260 264 268 273 277 280 281 282 282 280 276 270 264 260 258 259 261 263 266 269 270 270 272 277 282 285 286 287 287 283 275 267 264 265 268 269 271 270 269 268 269 272 274 272 271 271 271 270
303 293 285 278 272 268 264 260 257 254 253 253 253 254 256 257 256 255 255 256 257 259 261 264 268 272 275 277 278 277 275 274 272 270 268 267 266 266 268 269 271 274 278 282 286 289 290 291 292 293 292 287 275 269 268 270 272 271 268 266 266 268 271 272 273 273 273 273 272
139 319 312 299 284 273 264 259 255 254 254 255 255 256 258 259 259 259 259 259 259 259 260 262 264 267 269 268 267 265 264 265 265 266 268 272 274 275 276 276 277 279 284 289 292 294 294 294 294 296 299 298 288 279 274 274 273 271 267 266 267 269 271 272 274 274 274 274 273
159 162 167 177 194 234 253 253 249 246 244 243 246 249 253 257 260 261 261 261 261 261 261 262 261 262 262 260 258 257 259 261 262 263 265 270 276 279 281 281 283 287 292 295 297 297 297 296 295 296 298 300 296 288 280 277 274 269 265 265 267 269 270 270 271 273 275 274 273
189 177 174 169 158 143 53 303 287 274 263 253 249 249 252 255 258 259 259 259 259 260 261 261 260 260 261 260 259 259 260 262 263 265 268 272 276 280 282 284 287 291 295 296 295 295 294 293 290 290 291 294 293 289 285 280 275 268 264 263 265 266 267 266 267 269 272 273 273
279 274 265 258 258 285 312 323 326 328 327 317 298 282 273 267 263 260 258 256 255 256 257 258 260 261 263 264 263 263 264 265 267 269 271 274 277 282 286 290 292 293 294 294 294 294 293 292 288 285 284 285 285 285 285 284 280 275 269 266 265 265 265 265 266 269 271 274 275
284 282 283 286 288 292 296 302 307 314 320 323 322 315 306 296 286 277 270 265 262 260 260 260 261 262 264 265 267 267 268 269 270 272 275 278 284 290 293 294 294 293 292 291 292 293 294 293 293 291 288 284 282 282 283 286 286 283 278 273 270 268 267 268 270 273 275 277 278
289 288 288 289 290 291 292 293 295 296 298 298 299 298 297 296 295 293 291 286 279 275 273 272 271 272 272 273 272 272 272 273 274 276 281 289 297 299 296 293 292 291 290 289 289 290 291 292 294 294 292 288 284 282 283 286 287 286 283 280 276 274 272 273 275 276 278 279 279
294 293 293 294 293 293 292 292 293 293 293 292 292 293 294 293 293 292 291 290 288 286 286 285 285 285 285 283 281 278 276 276 276 280 288 299 302 299 293 289 289 289 290 289 288 288 289 290 292 293 292 290 287 286 285 285 284 283 282 280 278 276 276 277 277 277 278 279 280
298 298 298 298 297 296 295 295 296 295 294 293 293 294 294 293 291 289 288 288 289 288 287 286 286 287 288 288 287 285 283 280 279 282 289 297 298 296 291 288 288 289 289 289 289 289 290 291 291 293 294 293 292 290 287 284 280 279 279 279 280 279 279 280 279 279 279 280 280
301 302 302 300 299 298 298 298 299 299 298 295 294 294 293 291 288 288 289 290 291 290 288 286 285 284 283 284 285 286 286 285 284 285 289 294 297 299 299 298 296 293 291 290 292 294 293 292 292 292 292 292 291 289 287 283 280 279 279 281 283 283 282 283 284 284 283 282 280
303 303 303 302 302 302 301 301 302 302 300 297 296 294 292 289 288 288 290 291 292 291 290 287 284 281 279 278 280 283 285 286 286 287 288 289 293 298 304 308 307 302 297 294 296 296 296 294 293 291 289 287 288 288 286 283 281 280 281 282 282 282 283 285 287 288 288 286 284
303 303 303 303 304 304 303 304 304 302 299 296 295 292 290 289 289 291 292 292 292 291 290 287 283 279 276 274 275 278 281 283 283 281 277 275 277 281 285 291 299 304 305 303 301 300 299 295 292 290 288 287 287 287 286 284 283 282 282 282 282 283 285 288 291 294 294 293 290
302 302 302 303 304 305 305 305 304 301 297 294 291 289 289 291 293 294 294 294 292 290 288 285 280 276 273 271 270 270 273 275 276 274 270 267 265 264 264 266 275 289 302 308 307 306 303 299 292 287 286 286 287 287 286 286 286 285 285 284 285 288 291 294 297 298 299 299 297
300 300 301 302 303 304 304 303 302 298 294 291 288 289 291 294 295 295 294 293 291 288 286 283 279 275 271 269 267 267 267 269 270 270 269 267 263 259 256 256 260 270 284 297 304 307 306 303 296 290 288 289 290 289 288 288 287 286 286 288 291 294 297 298 300 300 301 301 299
296 297 298 298 299 299 297 295 293 291 289 288 289 292 295 296 295 294 293 291 289 287 285 282 278 274 271 269 269 269 269 269 269 269 268 268 267 264 262 260 260 262 267 276 286 296 302 301 296 293 292 292 294 294 293 291 287 287 289 293 296 298 299 300 300 300 299 297 296
291 292 292 292 292 290 288 286 286 285 286 288 291 294 295 295 294 293 292 290 287 285 283 280 278 274 271 270 271 273 274 274 273 271 269 268 268 268 267 265 264 262 262 264 270 278 287 292 292 292 292 294 297 298 296 293 289 290 293 296 298 298 298 298 297 296 294 292 291
286 286 286 285 284 283 282 282 283 284 285 287 290 292 292 293 293 292 291 288 285 281 278 277 276 275 273 272 274 277 279 279 278 275 272 270 269 268 268 267 267 266 266 265 266 269 275 281 286 289 291 292 295 296 295 293 292 293 295 296 296 295 293 292 291 290 288 286 286
282 281 280 280 279 279 279 280 281 283 284 286 288 289 290 291 291 291 289 286 283 279 275 272 274 277 279 281 283 285 286 285 283 280 276 273 272 271 271 271 272 273 273 272 271 269 271 275 282 286 288 288 290 291 291 289 290 290 291 290 289 286 285 284 284 282 280 278 276
278 277 277 277 276 277 277 279 281 282 284 285 286 288 288 288 287 285 283 283 283 280 276 273 275 279 284 287 288 289 288 287 287 286 283 280 278 277 277 278 278 277 276 273 271 269 270 274 279 283 284 285 285 284 282 281 280 279 278 276 274 273 272 272 271 269 266 262 259
276 276 275 275 275 275 276 278 279 281 281 282 283 284 282 278 274 274 277 281 281 279 277 278 279 282 286 288 288 286 286 286 288 289 289 288 287 285 284 284 283 280 278 275 273 272 273 276 278 280 280 279 276 272 268 265 263 261 259 257 256 256 257 256 254 251 247 243 239
274 273 273 272 272 272 272 273 273 274 275 275 275 272 268 262 265 273 283 289 291 291 292 296 300 301 301 298 295 291 288 288 290 291 293 294 294 294 292 291 289 287 285 282 281 279 278 276 274 272 269 264 258 252 248 244 242 241 240 239 238 237 238 239 237 236 233 230 227
272 270 269 267 265 264 262 262 261 263 265 269 268 263 258 262 279 300 313 319 321 319 315 313 315 316 315 311 306 301 298 297 297 298 299 301 301 300 298 295 293 291 289 286 284 279 272 264 258 254 249 242 235 229 224 218 215 214 215 214 212 211 212 216 220 222 223 223 221
269 266 263 259 254 248 246 246 249 255 265 272 273 275 286 313 334 345 349 346 343 335 327 320 318 319 319 318 314 311 308 307 307 309 311 312 310 306 301 296 291 286 282 277 269 259 248 238 228 219 213 209 201 196 190 185 177 171 169 174 182 189 195 200 207 212 216 218 216
269 263 253 242 231 229 231 237 243 259 293 353 38 45 42 39 31 24 20 16 8 356 343 334 328 327 327 326 325 324 323 323 324 327 329 328 323 312 300 290 280 271 260 243 221 199 186 178 174 163 154 150 149 149 149 149 149 150 154 164 177 187 196 202 206 211 213 213 211
276 263 228 203 191 185 172 155 118 82 67 64 58 52 48 45 41 37 32 26 19 10 1 355 350 348 348 348 348 349 350 352 356 359 357 345 334 314 289 263 246 213 173 148 140 138 136 131 124 116 112 109 111 117 124 130 137 145 157 169 182 194 203 208 210 211 210 209 207
307 190 138 126 98 87 92 98 83 71 63 58 54 51 47 43 40 38 36 35 32 28 23 19 17 17 17 20 21 24 29 37 46 55 63 83 123 136 141 140 132 123 116 115 117 118 115 110 104 99 94 89 88 93 102 115 129 145 162 180 193 201 207 209 210 209 208 207 208
75 96 96 87 78 77 79 76 69 63 60 57 56 54 50 47 44 44 44 44 44 43 42 41 41 43 48 53 57 65 76 86 91 96 106 119 126 130 130 130 123 118 114 113 109 103 100 99 96 91 86 81 76 77 86 109 140 164 180 192 200 204 205 206 208 209 211 213 218
86 86 81 76 74 74 73 71 68 65 62 60 59 58 56 55 55 56 56 56 58 59 59 58 61 68 75 80 86 94 101 105 106 108 111 113 115 118 121 122 119 115 111 103 95 89 88 90 90 88 84 81 76 76 96 161 182 188 194 198 201 203 205 207 211 216 222 229 238
84 80 76 74 73 73 74 74 72 70 68 66 65 65 65 66 67 68 69 72 75 77 77 78 83 88 93 100 107 112 116 121 123 124 123 123 123 122 121 118 115 109 100 89 79 74 76 81 85 87 88 90 97 128 181 190 192 195 198 201 204 207 211 218 225 232 240 247 252
82 78 76 75 75 76 77 77 76 74 73 73 73 73 73 74 74 77 81 86 90 93 95 98 101 104 107 115 123 130 134 136 133 131 128 125 120 118 115 111 106 98 86 73 65 64 69 75 81 86 92 101 123 169 190 196 198 201 205 209 214 220 228 236 244 249 253 255 256
81 79 78 77 77 77 77 77 76 75 75 77 78 78 77 78 81 85 90 95 99 102 105 109 112 115 117 120 122 120 115 108 100 89 80 74 74 80 87 91 89 82 72 63 61 62 67 71 76 80 89 104 136 174 196 204 210 215 222 229 235 241 246 251 254 256 258 260 263
82 80 79 79 78 77 77 77 78 79 80 82 83 82 82 84 86 90 93 96 100 102 103 104 108 109 108 104 99 95 91 85 79 73 68 63 60 61 65 69 71 70 65 62 60 62 64 66 70 75 82 99 147 196 218 226 235 241 246 250 253 255 257 259 262 265 269 274 280
85 82 81 81 81 80 80 80 81 83 85 87 88 88 89 90 90 91 93 96 98 99 99 98 98 98 96 91 84 81 80 79 75 72 68 64 60 59 61 64 67 68 66 63 62 62 63 64 67 71 74 84 235 249 250 252 255 256 257 258 261 264 268 273 278 283 288 293 297
89 87 86 86 86 85 84 85 86 89 91 92 93 93 93 94 94 94 95 97 99 99 98 97 96 95 94 91 87 83 80 78 76 74 71 68 63 61 62 65 68 69 68 66 64 63 63 64 65 62 42 283 267 263 261 261 261 263 265 268 272 279 286 294 299 304 306 306 305
95 94 93 92 91 91 90 91 93 96 97 98 97 97 97 97 97 97 98 98 99 99 98 97 96 94 93 92 90 88 84 82 79 76 74 70 65 61 61 64 68 70 70 67 67 66 65 64 56 356 282 269 265 262 262 265 270 278 286 293 298 303 308 311 312 313 311 310 308
101 100 98 97 96 95 95 97 99 100 101 101 100 100 99 99 99 98 98 98 98 98 97 96 94 92 90 89 88 88 87 86 80 74 69 65 60 57 56 59 64 67 68 68 70 74 81 90 104 272 281 277 275 275 278 286 297 311 322 328 330 331 327 322 318 316 315 314 313
103 101 99 98 98 98 98 100 100 101 100 100 100 99 99 98 97 97 97 96 95 94 93 92 91 89 86 84 83 82 81 79 74 67 59 55 53 51 52 57 65 71 73 75 77 80 83 83 76 62 45 31 20 14 12 13 13 10 2 353 345 337 331 326 324 323 321 318 315
101 98 97 97 97 98 100 100 100 99 99 98 98 97 97 96 96 95 95 93 92 91 90 89 87 85 82 80 78 76 73 70 66 60 54 51 53 56 60 66 74 78 80 79 77 75 73 68 64 59 53 47 41 36 31 26 21 14 5 357 349 344 337 332 329 327 325 320 315
98 97 97 98 98 99 100 100 99 99 98 97 97 96 96 96 95 94 93 92 91 89 88 86 85 83 82 80 76 72 69 66 64 62 60 62 67 71 74 77 80 81 80 76 73 70 65 59 54 48 42 37 33 29 26 22 18 13 7 357 349 343 337 332 328 325 320 316 310
Height
1480 1480 1481 1481 1482 1482 1483 1483 1483 1484 1484 1485 1486 1486 1486 1487 1487 1487 1487 1487 1487 1486 1486 1486 1485 1485 1485 1485 1485 1485 1485 1486 1486 1486 1486 1486 1486 1487 1487 1486 1486 1485 1484 1484 1483 1483 1484 1484 1483 1483 1482 1482 1482 1482 1482 1483 1483 1484 1484 1484 1484 1485 1485 1485 1485 1485 1485 1485 1485
1479 1479 1479 1480 1480 1480 1481 1481 1482 1482 1483 1483 1484 1484 1485 1485 1485 1485 1485 1485 1485 1485 1485 1485 1485 1484 1484 1484 1484 1484 1483 1484 1484 1484 1484 1484 1484 1485 1485 1485 1484 1484 1483 1483 1483 1483 1483 1483 1482 1481 1481 1480 1480 1481 1481 1481 1482 1482 1482 1483 1483 1484 1484 1483 1483 1483 1483 1483 1483
1478 1478 1478 1479 1479 1479 1480 1480 1480 1481 1482 1482 1483 1483 1483 1483 1483 1484 1484 1484 1484 1484 1484 1484 1484 1484 1484 1483 1483 1483 1483 1483 1483 1483 1482 1482 1482 1483 1483 1483 1483 1483 1483 1483 1482 1482 1481 1481 1480 1480 1479 1478 1478 1478 1479 1479 1480 1480 1480 1481 1482 1483 1482 1482 1482 1482 1482 1482 1482
1478 1478 1478 1478 1478 1479 1479 1479 1479 1480 1480 1481 1481 1482 1482 1482 1482 1482 1483 1483 1483 1483 1483 1483 1483 1484 1483 1483 1483 1483 1483 1482 1482 1482 1481 1481 1480 1480 1481 1481 1481 1481 1481 1481 1481 1480 1480 1480 1479 1478 1478 1477 1477 1477 1478 1478 1479 1479 1479 1480 1481 1481 1480 1480 1480 1480 1480 1480 1480
1477 1477 1477 1477 1478 1478 1478 1478 1478 1478 1479 1479 1479 1480 1480 1481 1481 1481 1482 1482 1482 1482 1483 1483 1483 1483 1482 1481 1481 1481 1481 1481 1481 1481 1481 1481 1480 1479 1479 1479 1479 1479 1479 1479 1479 1479 1479 1478 1478 1478 1477 1477 1477 1477 1477 1477 1478 1478 1478 1479 1479 1479 1479 1479 1478 1478 1478 1478 1478
1476 1476 1476 1477 1477 1477 1477 1477 1478 1478 1478 1478 1478 1478 1479 1479 1479 1480 1480 1481 1481 1481 1481 1481 1481 1481 1480 1479 1479 1479 1479 1479 1479 1480 1480 1480 1479 1478 1478 1478 1478 1478 1478 1478 1478 1478 1478 1477 1477 1477 1477 1477 1476 1476 1476 1476 1476 1476 1477 1477 1477 1478 1478 1478 1477 1477 1477 1477 1477
1476 1476 1476 1476 1476 1476 1476 1477 1477 1477 1477 1478 1478 1478 1478 1478 1478 1478 1479 1479 1479 1479 1479 1479 1479 1479 1479 1478 1478 1478 1478 1478 1478 1478 1478 1478 1478 1477 1477 1477 1477 1477 1477 1477 1477 1476 1476 1476 1475 1475 1475 1475 1475 1475 1475 1475 1474 1474 1475 1475 1475 1475 1476 1476 1475 1475 1475 1476 1475
1475 1475 1475 1476 1476 1476 1476 1476 1476 1476 1477 1477 1477 1477 1477 1477 1477 1477 1477 1477 1477 1477 1478 1478 1478 1478 1478 1477 1477 1477 1476 1476 1476 1476 1476 1476 1476 1476 1476 1476 1476 1476 1476 1475 1475 1475 1475 1475 1475 1474 1474 1474 1474 1474 1474 1473 1473 1473 1473 1473 1472 1473 1473 1473 1473 1473 1474 1474 1474
1474 1475 1475 1475 1475 1475 1475 1475 1475 1475 1476 1476 1476 1476 1476 1476 1476 1476 1476 1476 1476 1476 1476 1477 1477 1477 1476 1476 1476 1475 1475 1475 1475 1474 1474 1474 1474 1475 1475 1476 1475 1475 1474 1474 1474 1474 1474 1474 1474 1473 1473 1473 1473 1473 1473 1472 1472 1471 1471 1471 1470 1470 1471 1471 1471 1472 1472 1472 1471
1473 1474 1474 1474 1474 1474 1474 1474 1474 1474 1474 1475 1475 1475 1475 1474 1474 1474 1474 1475 1475 1475 1475 1475 1475 1475 1475 1475 1474 1474 1473 1473 1473 1473 1473 1473 1473 1474 1474 1474 1474 1474 1473 1473 1473 1473 1472 1472 1472 1472 1472 1472 1472 1472 1471 1471 1470 1470 1469 1469 1469 1469 1469 1469 1469 1470 1469 1469 1469
1473 1473 1473 1473 1473 1473 1473 1473 1473 1473 1473 1473 1473 1473 1473 1473 1473 1473 1473 1473 1473 1473 1474 1474 1473 1473 1473 1473 1473 1472 1472 1471 1471 1471 1471 1472 1472 1473 1473 1473 1473 1473 1473 1472 1472 1471 1471 1471 1471 1471 1471 1471 1471 1471 1470 1470 1469 1469 1468 1468 1468 1468 1468 1468 1468 1468 1468 1468 1467
1472 1472 1472 1472 1472 1472 1472 1472 1472 1472 1472 1472 1472 1472 1472 1471 1471 1471 1472 1472 1472 1472 1472 1472 1472 1472 1472 1471 1471 1471 1470 1470 1469 1469 1469 1470 1471 1471 1472 1472 1472 1472 1472 1472 1471 1470 1470 1470 1470 1470 1470 1470 1470 1469 1469 1468 1468 1468 1468 1467 1468 1468 1468 1468 1468 1467 1467 1466 1466
1471 1471 1471 1471 1471 1471 1471 1471 1471 1471 1471 1471 1471 1470 1470 1470 1470 1470 1470 1470 1470 1470 1470 1470 1470 1470 1470 1469 1469 1469 1469 1468 1468 1468 1468 1468 1469 1470 1470 1471 1471 1471 1471 1471 1471 1470 1469 1468 1469 1469 1469 1469 1469 1468 1468 1467 1467 1467 1467 1467 1467 1468 1468 1467 1467 1466 1465 1465 1465
1469 1469 1469 1470 1470 1470 1470 1470 1470 1470 1469 1469 1469 1469 1468 1468 1468 1468 1468 1468 1468 1468 1468 1468 1468 1468 1468 1468 1468 1468 1468 1467 1467 1466 1466 1467 1468 1469 1469 1470 1470 1471 1471 1470 1470 1469 1468 1468 1468 1468 1468 1468 1467 1467 1466 1466 1466 1466 1466 1466 1467 1467 1466 1466 1465 1465 1464 1464 1465
1468 1468 1468 1468 1468 1469 1469 1469 1469 1468 1468 1468 1468 1467 1467 1467 1467 1467 1467 1467 1467 1467 1467 1467 1467 1467 1467 1466 1466 1466 1466 1466 1466 1465 1465 1466 1466 1467 1467 1468 1468 1469 1469 1469 1469 1468 1467 1466 1466 1467 1467 1466 1466 1466 1465 1465 1465 1465 1465 1466 1465 1465 1465 1464 1464 1464 1464 1464 1464
1467 1467 1467 1467 1468 1468 1468 1468 1468 1467 1467 1466 1466 1465 1465 1466 1465 1465 1465 1465 1465 1465 1465 1465 1465 1465 1465 1465 1464 1464 1464 1464 1464 1464 1464 1464 1464 1464 1464 1464 1464 1465 1466 1467 1467 1467 1466 1465 1465 1466 1466 1465 1465 1465 1464 1464 1464 1465 1465 1465 1464 1464 1463 1463 1463 1463 1464 1464 1463
1466 1466 1466 1466 1466 1466 1466 1466 1466 1466 1465 1464 1464 1463 1464 1464 1464 1463 1463 1463 1463 1463 1463 1463 1463 1463 1463 1463 1463 1463 1463 1462 1462 1462 1462 1463 1463 1462 1462 1462 1461 1462 1463 1465 1466 1466 1465 1464 1464 1464 1464 1464 1464 1464 1463 1463 1463 1463 1463 1463 1463 1463 1462 1463 1463 1463 1463 1463 1463
1464 1464 1464 1464 1464 1464 1464 1464 1464 1464 1463 1463 1462 1462 1462 1462 1462 1462 1462 1462 1462 1461 1461 1461 1461 1461 1462 1462 1462 1461 1461 1461 1461 1461 1461 1461 1461 1461 1461 1460 1460 1460 1461 1462 1463 1464 1465 1464 1464 1463 1463 1463 1463 1463 1462 1462 1462 1462 1461 1461 1461 1461 1461 1462 1462 1462 1462 1462 1462
1463 1463 1463 1463 1463 1463 1462 1462 1462 1462 1462 1461 1461 1461 1461 1460 1460 1460 1460 1460 1460 1460 1460 1460 1460 1460 1460 1460 1460 1460 1460 1460 1460 1460 1460 1459 1459 1459 1459 1459 1459 1459 1460 1460 1461 1462 1463 1464 1463 1463 1462 1461 1461 1461 1461 1461 1460 1460 1460 1459 1459 1460 1460 1461 1461 1461 1461 1461 1461
1461 1461 1461 1461 1461 1461 1460 1460 1460 1460 1460 1460 1460 1459 1459 1459 1459 1459 1459 1458 1458 1458 1458 1458 1458 1458 1458 1459 1459 1459 1459 1459 1459 1459 1459 1459 1459 1459 1458 1458 1458 1458 1459 1459 1460 1461 1462 1462 1462 1461 1460 1460 1459 1459 1459 1459 1459 1458 1458 1458 1458 1459 1459 1459 1459 1460 1460 1460 1460
1459 1459 1459 1459 1459 1459 1459 1459 1459 1458 1458 1458 1458 1458 1458 1458 1458 1458 1458 1458 1458 1457 1457 1457 1457 1458 1458 1458 1458 1458 1458 1458 1458 1458 1458 1458 1458 1458 1457 1457 1457 1457 1458 1458 1458 1459 1459 1460 1460 1459 1459 1458 1458 1458 1458 1458 1458 1458 1458 1458 1458 1458 1458 1458 1458 1459 1459 1459 1460
1458 1458 1458 1458 1458 1458 1458 1458 1458 1458 1458 1458 1458 1458 1458 1458 1457 1457 1457 1457 1457 1457 1457 1457 1457 1457 1457 1457 1457 1457 1457 1457 1457 1457 1457 1457 1456 1456 1456 1456 1456 1456 1456 1457 1457 1457 1457 1458 1458 1458 1457 1457 1457 1457 1457 1457 1457 1457 1457 1457 1457 1457 1458 1458 1458 1458 1459 1459 1460
1457 1457 1457 1457 1457 1457 1457 1457 1457 1457 1457 1457 1457 1457 1457 1457 1456 1456 1456 1456 1456 1456 1456 1456 1456 1456 1456 1456 1456 1456 1456 1456 1456 1456 1456 1455 1455 1455 1455 1455 1455 1455 1455 1455 1455 1456 1456 1456 1456 1456 1456 1456 1456 1456 1456 1456 1456 1456 1457 1457 1457 1457 1457 1457 1458 1458 1459 1459 1460
1456 1456 1456 1456 1456 1456 1456 1456 1456 1456 1456 1456 1456 1456 1456 1456 1456 1455 1455 1455 1455 1455 1455 1455 1455 1455 1455 1455 1455 1455 1455 1455 1455 1455 1454 1454 1454 1454 1454 1454 1454 1454 1454 1454 1454 1455 1455 1455 1455 1455 1456 1456 1456 1456 1456 1456 1456 1456 1456 1456 1456 1457 1457 1458 1458 1459 1459 1460 1461
1455 1455 1455 1455 1455 1455 1455 1455 1456 1456 1456 1456 1456 1456 1455 1455 1455 1455 1455 1454 1454 1454 1454 1454 1454 1454 1454 1454 1454 1454 1454 1454 1454 1454 1453 1453 1453 1453 1453 1453 1453 1453 1453 1454 1454 1454 1454 1455 1455 1455 1455 1455 1455 1455 1455 1456 1456 1456 1456 1456 1457 1457 1458 1458 1459 1459 1460 1461 1461
1454 1454 1454 1454 1454 1455 1455 1455 1455 1455 1455 1455 1455 1455 1455 1455 1454 1454 1454 1454 1454 1454 1454 1454 1454 1454 1454 1453 1453 1453 1453 1453 1453 1453 1453 1453 1453 1453 1453 1453 1453 1453 1453 1453 1454 1454 1454 1454 1454 1455 1455 1455 1455 1455 1455 1455 1456 1456 1456 1457 1457 1458 1458 1459 1459 1460 1461 1461 1462
1454 1454 1454 1454 1454 1454 1454 1455 1455 1455 1455 1455 1455 1454 1454 1454 1454 1454 1454 1454 1454 1453 1453 1453 1453 1453 1453 1453 1453 1453 1453 1453 1453 1453 1453 1453 1453 1453 1453 1453 1453 1453 1453 1453 1454 1454 1454 1454 1454 1455 1455 1455 1455 1455 1456 1456 1456 1457 1457 1458 1458 1458 1459 1460 1460 1461 1461 1462 1462
1454 1454 1454 1454 1454 1454 1454 1455 1455 1455 1455 1454 1454 1454 1454 1454 1454 1454 1454 1454 1453 1453 1453 1453 1453 1453 1453 1453 1453 1453 1453 1453 1453 1453 1453 1453 1453 1453 1453 1453 1453 1453 1453 1453 1454 1454 1454 1455 1455 1455 1455 1456 1456 1456 1457 1457 1457 1458 1458 1458 1459 1459 1460 1461 1461 1462 1462 1462 1462
1454 1454 1454 1454 1454 1454 1454 1455 1455 1455 1455 1454 1454 1454 1454 1454 1454 1454 1454 1454 1454 1453 1453 1453 1453 1453 1453 1453 1453 1453 1453 1453 1453 1453 1453 1453 1453 1453 1453 1453 1453 1453 1453 1454 1454 1455 1455 1455 1456 1456 1456 1456 1457 1457 1458 1458 1458 1458 1459 1459 1460 1460 1461 1461 1462 1462 1462 1463 1463
1454 1454 1454 1454 1454 1454 1455 1455 1455 1455 1455 1455 1455 1455 1455 1454 1454 1454 1454 1454 1454 1454 1454 1454 1454 1454 1454 1454 1454 1454 1454 1454 1454 1454 1454 1453 1453 1453 1453 1453 1453 1453 1454 1454 1455 1455 1456 1456 1456 1456 1457 1457 1458 1458 1458 1458 1459 1459 1460 1460 1461 1461 1461 1462 1462 1462 1463 1463 1463
1454 1454 1454 1454 1455 1455 1455 1455 1455 1455 1455 1455 1455 1455 1455 1455 1454 1454 1454 1454 1454 1454 1454 1454 1454 1454 1454 1454 1454 1454 1454 1454 1454 1454 1454 1454 1454 1454 1453 1453 1453 1454 1454 1455 1455 1456 1456 1456 1457 1457 1457 1458 1458 1458 1459 1459 1459 1460 1460 1461 1461 1462 1462 1462 1463 1463 1463 1463 1463
1454 1454 1454 1455 1455 1455 1455 1455 1455 1455 1455 1455 1455 1455 1455 1455 1455 1455 1455 1454 1454 1454 1454 1454 1454 1454 1454 1455 1454 1454 1454 1454 1454 1455 1455 1455 1454 1454 1454 1454 1454 1455 1455 1456 1456 1456 1457 1457 1457 1458 1458 1458 1459 1459 1459 1460 1460 1461 1461 1462 1462 1462 1463 1463 1463 1463 1463 1463 1463
1455 1455 1455 1455 1455 1455 1455 1455 1455 1455 1455 1455 1455 1455 1455 1455 1455 1455 1455 1455 1455 1454 1454 1454 1454 1455 1455 1455 1455 1455 1455 1456 1456 1456 1456 1456 1456 1456 1456 1456 1456 1456 1456 1457 1457 1457 1458 1458 1458 1458 1459 1459 1460 1460 1460 1461 1461 1461 1462 1462 1462 1463 1463 1463 1463 1463 1463 1463 1462
1455 1455 1455 1455 1455 1455 1455 1455 1456 1456 1456 1456 1456 1456 1456 1456 1456 1456 1456 1455 1455 1455 1455 1455 1455 1455 1456 1456 1456 1456 1457 1457 1457 1457 1458 1458 1458 1458 1458 1457 1457 1457 1458 1458 1458 1458 1458 1459 1459 1460 1460 1460 1461 1461 1461 1461 1462 1462 1462 1463 1463 1463 1463 1463 1463 1462 1462 1462 1461
1455 1455 1456 1456 1456 1456 1456 1456 1456 1456 1456 1456 1456 1456 1456 1456 1456 1456 1456 1456 1456 1456 1456 1456 1456 1457 1457 1457 1457 1458 1458 1458 1458 1458 1458 1458 1458 1458 1458 1458 1458 1458 1458 1458 1459 1459 1459 1460 1460 1461 1461 1461 1461 1462 1462 1462 1462 1462 1463 1463 1463 1463 1462 1462 1462 1462 1461 1461 1461
1456 1456 1456 1456 1456 1457 1457 1457 1457 1457 1457 1457 1457 1457 1457 1457 1457 1457 1457 1457 1457 1457 1457 1457 1457 1458 1458 1458 1458 1458 1459 1459 1459 1459 1459 1459 1459 1459 1459 1459 1459 1459 1459 1459 1459 1460 1460 1461 1461 1461 1461 1462 1462 1462 1462 1462 1462 1462 1462 1462 1462 1462 1462 1462 1461 1461 1461 1461 1461
1456 1456 1457 1457 1457 1457 1457 1457 1457 1457 1457 1457 1457 1457 1457 1457 1457 1457 1458 1458 1458 1458 1458 1458 1458 1458 1459 1459 1459 1459 1460 1460 1460 1460 1460 1460 1460 1460 1460 1459 1459 1459 1460 1460 1460 1461 1461 1461 1462 1462 1462 1462 1462 1462 1462 1463 1462 1462 1462 1462 1462 1462 1462 1461 1461 1461 1461 1461 1461
1457 1457 1457 1457 1457 1458 1458 1458 1458 1458 1458 1458 1458 1458 1458 1458 1458 1458 1458 1458 1458 1458 1458 1459 1459 1459 1460 1460 1460 1460 1461 1461 1461 1461 1461 1461 1461 1461 1461 1460 1460 1460 1461 1461 1461 1461 1462 1462 1462 1463 1463 1463 1463 1463 1463 1462 1462 1462 1462 1462 1462 1462 1461 1461 1461 1461 1461 1461 1460
1457 1458 1458 1458 1458 1458 1458 1458 1458 1458 1458 1458 1458 1458 1458 1458 1459 1459 1459 1459 1460 1460 1460 1460 1461 1461 1461 1462 1462 1462 1462 1462 1462 1462 1462 1462 1462 1462 1462 1462 1461 1461 1462 1462 1462 1462 1462 1463 1463 1463 1463 1463 1463 1463 1463 1462 1462 1462 1462 1462 1462 1462 1461 1461 1461 1461 1461 1460 1460
1458 1458 1458 1459 1459 1459 1459 1459 1459 1459 1459 1459 1459 1459 1460 1460 1460 1460 1461 1461 1461 1461 1462 1462 1462 1462 1463 1463 1463 1463 1463 1463 1463 1463 1463 1463 1463 1463 1463 1462 1462 1462 1462 1462 1462 1463 1463 1463 1463 1463 1463 1463 1463 1463 1463 1462 1462 1462 1462 1462 1462 1461 1461 1461 1461 1461 1460 1460 1460
1459 1459 1459 1460 1460 1460 1460 1460 1460 1460 1460 1461 1461 1461 1461 1461 1461 1462 1462 1462 1462 1463 1463 1463 1463 1463 1463 1464 1464 1464 1464 1464 1464 1463 1463 1463 1463 1463 1463 1463 1463 1463 1463 1463 1463 1463 1463 1463 1463 1463 1463 1463 1463 1463 1463 1463 1463 1462 1462 1462 1462 1461 1461 1461 1461 1461 1460 1460 1460